SKYSAT-C1 (41601 NORAD) Tracking and Keplerian Element Data

This shows tracking and keplerian element data for the satellite.

Feedback or suggestion? Click here.




ElementValue
Catalog41601
NameSKYSAT-C1
Epoch Orbit48156
Epoch Day34.76807411
Epoch Year2025
RAAN89.3991
Inclination97.0278
Eccentricity0.0002911
Argument of Perigee294.7565
Mean Anonmoly65.3374
Mean Motion15.3062011
Decay Rate0.0001496
L11 41601U 16040C 25034.76807411 .00014960 00000+0 50729-3 0 9996
L22 41601 97.0278 89.3991 0002911 294.7565 65.3374 15.30620110481568



Live tracking and technical data element details for SKYSAT-C1 (NORAD 41601). SKYSAT-C1 can be tracked NOW for your location showing map with azimuth and elevation plus other details from your city location.







IsCatalogInMostPopularTable: catalog: 41601, numindb: 397
Update: records affected: 1



GetName: 41601 SKYSAT-C1

Hit Count: updated at: Thu, 15 May 2025 18:43:03 GMT